Change the Weather History Date:

Thursday, January 10, 2013

  Actual Average Record
Temperature  
Mean Temperature 38 °F -  
Max Temperature 42 °F 42 °F 69 °F (2015)
Min Temperature 33 °F 32 °F 24 °F (2003)
Degree Days  
Heating Degree Days 28    
Moisture  
Dew Point 37 °F    
Average Humidity 100    
Maximum Humidity 100    
Minimum Humidity 98    
Precipitation  
Precipitation 0.00 in 0.04 in - ()
Sea Level Pressure  
Sea Level Pressure 29.85 in    
Wind  
Wind Speed 2 mph ()    
Max Wind Speed 5 mph    
Max Gust Speed -    
Visibility 6.1 miles    
Events Fog    
Averages and records for this station are not official NWS values.
T = Trace of Precipitation, MM = Missing Value Source: Averaged Metar Reports

Daily Weather History Graph

Daily Weather History Graph

Search for Another Location

Airport or City:

Trip Planner

Search our weather history database for the weather conditions in past years. The results will help you decide how hot, cold, wet, or windy it might be!

Date:

Astronomy

Jan. 10, 2013 Rise Set
Actual Time 8:06 AM CET 5:07 PM CET
Civil Twilight 7:32 AM CET 5:40 PM CET
Nautical Twilight 6:56 AM CET 6:17 PM CET
Astronomical Twilight 6:20 AM CET 6:52 PM CET
Moon 6:30 AM CET (1/10) 3:57 PM CET (1/10)
Length of Visible Light 10h 07m
Length of Day
9h 01m
Waning Crescent, 3% of the Moon is Illuminated
Jan 10
Waning Crescent
Jan 11
New
Jan 19
First Quarter
Jan 27
Full
Feb 3
Last Quarter

Hourly Weather History & Observations

Time (CET) Temp. Windchill Dew Point Humidity Pressure Visibility Wind Dir Wind Speed Gust Speed Precip Events Conditions
12:55 AM 33.8 °F - 33.8 °F 100% 30.01 in 0.1 mi NW 2.3 mph - N/A Fog Fog
1:00 AM 34 °F - 34 °F 99%  in 0 mi NW 2.3 mph - - Fog Heavy Fog
1:55 AM 33.8 °F - 33.8 °F 100% 29.98 in 0.1 mi NNW 2.3 mph - N/A Fog Fog
2:55 AM 33.8 °F - 33.8 °F 100% 29.98 in 0.1 mi Calm Calm - N/A Fog Fog
3:55 AM 33.8 °F 30.8 °F 33.8 °F 100% 29.98 in 0.1 mi West 3.5 mph - N/A Fog Fog
4:55 AM 33.8 °F 30.8 °F 33.8 °F 100% 29.92 in 0.1 mi West 3.5 mph - N/A Fog Fog
5:55 AM 33.8 °F 29.6 °F 33.8 °F 100% 29.89 in 0.1 mi WNW 4.6 mph - N/A Fog Fog
6:55 AM 33.8 °F 30.8 °F 33.8 °F 100% 29.89 in 0.1 mi West 3.5 mph - N/A Fog Fog
7:00 AM 34 °F - 34 °F 99%  in 0 mi West 3.5 mph - - Fog Heavy Fog
7:55 AM 35.6 °F 32.8 °F 35.6 °F 100% 29.89 in 6.2 mi West 3.5 mph - N/A   Mostly Cloudy
8:55 AM 35.6 °F 32.8 °F 35.6 °F 100% 29.89 in 6.2 mi WNW 3.5 mph - N/A   Mostly Cloudy
9:55 AM 35.6 °F - 35.6 °F 100% 29.89 in 6.2 mi Calm Calm - N/A   Scattered Clouds
10:00 AM 36 °F - 36 °F 98%  in 19 mi Calm Calm - -   Partly Cloudy
10:55 AM 39.2 °F - 39.2 °F 100% 29.89 in 6.2 mi Calm Calm - N/A   Partly Cloudy
11:55 AM 39.2 °F - 39.2 °F 100% 29.89 in 6.2 mi Calm Calm - N/A   Scattered Clouds
12:55 PM 41.0 °F - 41.0 °F 100% 29.86 in 6.2 mi Calm Calm - N/A   Mostly Cloudy
1:00 PM 41 °F - 41 °F 100%  in 19 mi Calm Calm - -   Partly Cloudy
1:55 PM 42.8 °F 41.1 °F 42.8 °F 100% 29.83 in 6.2 mi South 3.5 mph - N/A   Mostly Cloudy
2:55 PM 42.8 °F - 42.8 °F 100% 29.80 in 6.2 mi Calm Calm - N/A   Mostly Cloudy
3:55 PM 41.0 °F - 41.0 °F 100% 29.80 in 6.2 mi Calm Calm - N/A   Mostly Cloudy
4:00 PM 41 °F - 41 °F 100%  in 19 mi Calm Calm - -   Mostly Cloudy
4:55 PM 39.2 °F - 39.2 °F 100% 29.77 in 6.2 mi Calm Calm - N/A   Mostly Cloudy
5:55 PM 39.2 °F - 39.2 °F 100% 29.77 in 6.2 mi Calm Calm - N/A   Scattered Clouds
6:55 PM 39.2 °F - 39.2 °F 100% 29.77 in 6.2 mi Calm Calm - N/A   Scattered Clouds
7:55 PM 39.2 °F - 39.2 °F 100% 29.77 in 6.2 mi Calm Calm - N/A   Scattered Clouds
8:55 PM 39.2 °F 37.0 °F 39.2 °F 100% 29.77 in - SW 3.5 mph - N/A   Clear
9:55 PM 39.2 °F - 39.2 °F 100% 29.77 in - Calm Calm - N/A   Clear
10:00 PM 39 °F - 39 °F 99%  in 19 mi Calm Calm - -  
10:55 PM 37.4 °F 33.8 °F 37.4 °F 100% 29.74 in - SW 4.6 mph - N/A   Clear
11:55 PM 37.4 °F - 37.4 °F 100% 29.74 in - Calm Calm - N/A   Clear